Temp
9 9 9 9 9 9 9 9 8 8 8 8 8 8 8 8 8 8 9 8 8 9 9 9 10 11 11 11 13 16 16 15 16 16 15 15 14 15 15 15 16 16 17 19 19 18 19
9 9 9 9 9 9 9 8 8 8 8 7 8 7 8 8 7 8 7 8 8 8 9 9 10 11 11 11 15 16 16 16 16 15 15 15 15 15 16 16 16 18 17 18 18 18 18
9 9 8 8 8 8 8 7 7 7 7 7 7 7 7 7 7 7 7 8 8 8 8 9 9 10 11 12 15 16 16 16 16 15 14 15 15 16 16 17 17 18 17 17 17 18 18
9 8 8 8 8 8 8 8 7 7 7 7 7 7 7 7 7 7 7 7 7 7 8 8 9 10 11 13 15 15 16 16 16 16 16 16 16 16 17 17 17 17 16 16 18 18 18
8 8 8 8 7 8 8 8 7 7 7 7 7 7 7 7 7 7 6 6 7 7 8 8 8 10 12 14 14 15 16 16 16 15 15 15 16 16 16 15 15 15 14 15 16 17 18
8 8 8 7 7 7 8 7 7 7 7 6 7 6 6 6 6 6 6 6 8 7 8 8 8 10 11 13 14 15 16 16 16 14 15 15 14 14 14 14 13 14 14 14 15 18 17
8 8 8 7 7 7 7 7 7 7 7 7 7 7 6 6 6 6 6 6 6 7 8 10 11 12 12 14 15 15 15 16 14 14 14 14 14 14 15 15 16 16 16 15 16 17 16
7 7 7 7 7 7 7 7 7 6 6 7 7 7 6 6 6 6 6 5 6 6 7 10 11 12 13 15 14 14 15 14 14 14 13 13 14 14 15 15 15 15 15 14 15 16 16
7 7 7 7 6 6 6 7 7 7 6 7 7 6 6 6 6 6 6 6 7 7 7 10 10 12 13 14 13 13 15 14 14 13 14 14 14 15 15 16 15 14 14 14 14 14 14
7 7 7 6 6 6 6 7 7 7 7 6 6 6 6 6 6 6 6 6 6 7 7 10 10 11 13 14 12 15 15 15 14 13 14 14 15 14 14 15 14 14 14 14 14 13 11
7 7 7 6 6 6 6 6 6 6 7 6 6 6 6 6 6 6 7 6 7 7 10 8 10 13 13 13 13 14 15 16 14 14 14 13 14 14 14 14 15 14 14 13 13 12 10
7 6 7 6 6 6 6 6 6 7 6 6 6 6 6 7 7 6 7 5 6 7 10 9 10 11 12 13 12 14 14 15 15 14 14 13 15 15 14 14 14 14 13 11 10 9 7
6 6 7 6 6 6 6 6 7 6 6 6 6 6 7 7 6 6 6 6 7 7 8 9 11 12 12 12 12 13 13 13 12 12 11 13 13 14 14 13 13 12 11 7 8 7 9
6 6 6 6 6 6 6 6 6 6 6 6 7 7 7 6 7 7 6 5 7 10 10 11 12 12 11 13 12 12 12 12 13 11 10 10 11 13 14 13 12 12 11 9 11 9 9
6 6 6 6 6 6 6 6 6 6 7 7 8 7 6 6 7 7 7 7 8 9 10 11 12 10 11 11 11 12 12 13 12 12 11 9 11 13 13 13 13 12 9 11 10 10 5
6 6 6 6 6 5 6 6 6 6 6 7 8 7 7 7 7 7 7 9 7 9 12 13 9 11 11 11 11 12 12 13 13 13 13 12 10 13 13 13 14 12 11 9 7 5 9
6 6 6 6 5 5 5 6 5 6 6 7 7 6 8 8 8 7 8 7 8 12 13 13 11 12 12 12 10 12 11 13 13 13 14 13 11 11 13 11 11 11 11 10 9 7 6
6 6 5 5 5 5 5 5 5 5 6 7 5 4 8 8 7 7 8 6 8 11 12 13 12 12 12 11 11 11 11 12 13 13 12 14 11 7 10 12 12 11 11 10 7 8 7
6 5 5 5 5 5 5 5 5 5 6 6 5 5 8 7 6 8 7 7 9 13 14 15 13 13 12 11 11 12 12 14 12 13 13 13 10 8 10 11 11 11 11 11 11 10 6
5 5 5 5 5 4 4 4 5 5 6 7 5 5 5 7 7 8 9 10 12 13 13 13 12 13 13 13 13 12 13 13 14 14 14 13 10 8 9 10 10 8 11 11 11 8 10
5 5 5 5 4 4 4 4 4 6 7 7 4 6 6 6 9 8 9 10 12 12 13 14 14 14 14 13 13 13 13 12 13 13 13 12 8 7 9 10 10 9 10 10 9 11 9
5 5 5 5 4 4 4 4 4 5 6 6 6 6 7 6 8 10 10 11 11 12 12 12 12 14 14 12 13 13 11 11 12 12 11 11 7 8 10 10 9 9 10 10 11 11 12
5 5 5 5 4 4 4 4 4 4 6 5 5 6 6 7 8 10 10 12 12 13 13 12 13 12 12 12 12 12 13 12 11 10 10 10 8 10 9 10 9 10 10 12 11 11 11
4 4 5 4 4 4 4 4 4 4 4 4 5 5 7 7 8 10 13 13 13 12 12 12 12 12 12 12 13 12 11 12 11 11 11 10 9 10 9 9 9 14 14 13 12 13 13
4 4 4 5 4 4 4 4 4 4 4 4 4 4 6 7 7 10 10 12 12 11 12 12 11 11 11 13 11 12 12 12 12 12 11 11 10 10 10 11 12 15 14 14 13 13 13
4 4 4 4 4 4 4 4 4 4 4 4 4 4 4 6 7 8 9 11 10 10 10 11 12 11 12 10 11 11 12 11 12 11 11 11 11 10 11 11 12 15 15 14 13 11 13
3 4 4 4 4 4 4 4 4 4 4 3 4 4 4 6 7 7 9 11 12 9 9 10 11 11 10 9 10 10 9 12 11 11 11 11 11 11 11 12 12 13 14 13 13 14 13
3 4 4 4 4 4 4 4 4 4 4 3 3 4 3 4 5 6 9 10 10 9 9 9 10 9 9 9 9 9 9 10 11 11 11 11 11 11 11 11 11 13 13 14 13 13 13
3 3 3 4 4 4 4 3 4 4 4 3 3 3 3 3 3 5 6 7 8 10 9 9 10 10 9 8 8 9 10 11 10 10 11 12 12 11 11 11 13 14 15 14 11 11 11
Height
836 833 830 826 822 817 813 807 802 798 794 790 786 782 780 778 775 773 771 769 767 765 762 760 758 760 763 768 757 748 749 752 757 761 763 768 774 776 782 781 781 783 780 777 776 777 777
836 832 827 823 820 814 809 804 800 795 791 786 782 779 776 773 771 769 767 765 762 760 758 757 756 753 758 761 748 749 748 752 755 759 763 767 769 772 776 776 781 775 778 777 775 776 777
833 830 825 821 816 811 807 802 796 791 786 781 778 775 771 769 766 764 763 760 757 755 754 752 752 750 752 748 746 748 748 750 753 757 761 764 766 771 771 773 771 774 780 779 777 774 775
831 826 823 818 812 807 803 799 794 788 784 779 775 771 767 765 762 760 758 756 753 751 750 750 751 750 748 744 745 746 749 752 753 756 760 763 767 768 769 770 773 778 783 789 774 771 771
830 825 821 816 810 805 800 795 790 785 781 776 772 767 764 762 759 756 754 751 748 747 747 748 749 746 746 740 743 744 748 750 752 755 759 763 766 769 771 779 786 783 793 792 784 768 770
827 823 819 813 808 802 798 793 788 783 778 774 769 765 762 758 755 753 750 746 740 741 742 746 745 747 741 737 738 743 746 748 751 754 761 765 770 773 777 783 794 788 792 789 785 770 769
826 821 817 811 805 800 795 790 785 780 775 771 767 763 759 755 752 749 747 744 741 741 738 730 728 730 726 732 737 742 746 749 750 755 759 765 767 770 773 772 774 775 778 783 779 770 773
826 819 815 809 803 797 793 787 782 777 772 768 764 760 756 753 749 746 745 746 744 745 740 733 732 730 723 729 737 742 746 750 755 760 762 768 770 769 771 772 777 779 782 786 778 771 773
823 818 811 806 801 795 790 785 780 774 769 765 761 757 753 750 746 744 743 743 742 741 741 732 731 730 728 730 737 743 746 747 752 761 761 764 768 765 768 771 779 782 785 784 785 780 777
822 817 811 805 799 793 787 782 778 772 767 762 758 753 748 745 742 740 740 739 740 741 741 726 728 730 729 731 742 742 743 747 753 762 760 765 763 766 772 774 778 784 781 781 785 789 798
820 815 808 802 797 791 785 780 775 770 764 759 754 749 742 738 736 737 738 739 740 740 725 737 733 730 731 735 739 746 745 745 754 755 762 769 766 767 773 774 773 782 780 784 787 795 803
820 814 808 800 795 790 784 778 772 767 761 755 750 744 736 733 734 735 736 739 742 746 718 729 727 727 733 737 741 745 746 746 749 757 763 769 764 765 769 772 772 780 784 792 799 810 832
819 814 808 800 794 789 784 776 770 764 757 750 746 740 735 733 736 738 739 742 744 741 731 733 724 728 734 740 744 748 752 755 762 767 773 773 772 769 768 779 779 785 796 831 830 839 811
820 814 808 801 794 789 783 776 769 761 752 744 742 740 739 736 740 741 743 745 742 724 723 724 724 731 738 741 748 752 755 761 760 765 781 789 785 775 771 777 785 785 791 817 807 816 807
817 813 809 802 795 788 782 776 768 759 750 746 744 743 743 744 744 743 744 743 739 733 725 723 730 746 745 750 752 755 758 759 760 761 774 793 782 772 773 773 777 788 803 794 808 808 840
816 812 808 802 795 789 782 776 768 761 753 751 747 746 747 746 747 747 747 739 744 735 725 727 747 742 750 755 758 756 762 758 759 761 762 769 789 771 773 772 775 782 787 808 824 857 811
817 810 809 803 796 790 782 776 771 762 756 752 748 751 749 747 747 750 751 754 745 733 729 730 742 742 744 750 760 756 766 758 758 760 760 761 774 785 772 780 784 788 787 795 806 823 830
816 811 809 804 797 791 783 776 771 764 756 754 753 761 750 746 754 754 754 759 752 737 730 730 735 739 746 752 758 759 765 759 755 757 764 760 771 805 784 776 776 780 785 794 823 816 820
816 811 808 805 799 794 786 777 770 765 760 756 759 758 749 748 761 753 756 754 748 731 727 725 733 734 741 750 758 754 755 750 753 757 760 762 780 802 788 779 779 780 782 781 784 790 823
816 811 808 805 800 795 790 781 771 765 761 760 761 767 757 751 755 755 751 744 736 729 729 729 734 735 740 743 745 752 752 753 751 753 755 759 779 794 793 784 782 793 779 781 784 804 785
815 811 808 806 800 796 790 785 777 767 761 760 763 766 766 768 754 756 753 748 741 740 734 733 737 736 737 742 745 750 753 757 756 756 759 764 792 792 780 776 777 782 777 780 785 772 784
815 811 808 807 801 796 792 786 779 772 765 765 769 769 766 765 757 753 751 748 746 743 740 741 742 739 738 746 746 747 754 760 759 761 765 768 792 787 778 774 777 779 770 771 768 765 760
811 810 807 807 803 798 794 788 784 779 773 773 774 773 771 762 758 754 750 744 743 742 743 743 741 743 746 747 746 746 746 751 754 763 769 772 788 780 784 772 775 769 757 753 752 752 751
809 809 806 805 804 800 796 792 787 783 781 780 780 777 772 768 762 752 743 741 742 744 744 744 744 744 748 746 747 750 752 753 756 760 760 772 779 778 779 777 780 737 731 736 740 736 733
806 807 805 804 803 800 798 794 791 787 785 782 781 780 776 770 767 752 751 745 744 745 746 747 747 747 747 747 755 755 756 755 756 758 762 764 774 776 772 766 751 730 729 733 738 731 723
804 806 804 803 802 799 797 795 792 788 785 784 782 781 780 776 766 761 755 748 753 753 752 748 748 747 747 753 755 758 753 761 757 761 761 765 766 771 767 768 753 732 724 726 731 742 719
802 803 803 802 800 798 796 794 792 789 785 783 783 783 781 775 762 761 755 747 744 752 756 750 748 750 751 759 758 761 766 748 754 755 757 763 763 762 762 759 749 730 727 728 737 733 717
801 801 800 799 798 796 794 792 791 788 786 784 783 783 783 778 764 759 753 749 747 749 753 751 753 753 757 760 762 761 762 756 753 750 755 753 758 758 758 759 757 724 729 730 724 718 715
800 799 797 796 794 793 791 790 788 787 785 783 782 781 781 779 765 758 754 750 749 746 747 747 745 745 749 758 764 759 755 752 758 758 748 747 744 748 750 742 725 721 720 719 721 722 719
Wind_Speed
21 21 20 23 26 26 27 28 27 28 27 25 22 22 20 21 20 19 17 17 20 21 22 22 24 18 10 5 8 4 7 23 20 20 16 7 5 5 6 6 4 3 3 4 7 9 4
21 23 23 26 26 24 26 26 27 26 27 26 24 23 21 23 20 20 19 17 20 20 22 21 19 18 7 9 11 7 7 23 21 20 14 9 7 7 4 4 7 2 7 5 4 4 4
21 23 24 26 25 28 28 28 28 27 26 25 23 20 20 20 20 18 17 18 20 19 21 21 18 18 6 13 6 15 11 24 22 23 7 14 13 5 5 0 5 3 5 3 5 4 4
22 23 24 26 26 27 26 27 28 26 26 25 22 20 19 18 19 17 18 17 18 19 19 17 17 10 5 16 9 4 13 12 15 21 19 14 12 3 3 1 2 5 4 1 4 4 7
23 24 25 27 27 26 26 27 26 25 25 23 21 18 17 17 19 18 17 17 21 20 19 15 12 8 5 6 10 17 13 7 12 19 18 10 5 2 2 5 3 3 2 4 7 8 6
22 24 25 26 26 25 27 26 26 25 24 22 20 19 18 18 17 17 16 20 24 18 12 8 13 3 3 5 10 16 12 9 4 6 8 4 3 3 2 4 6 6 4 3 5 4 3
23 25 26 26 26 26 26 26 26 25 23 24 23 21 18 14 14 20 16 10 4 1 5 3 9 4 7 9 15 12 11 7 3 3 5 6 2 9 14 8 4 3 1 2 5 4 4
24 26 25 28 27 26 26 25 26 25 23 24 23 20 20 18 20 13 11 2 2 2 3 8 9 6 9 12 8 10 11 5 5 4 8 3 3 8 9 6 5 1 3 5 6 1 3
24 26 25 28 27 26 26 26 26 27 24 24 20 21 21 22 19 16 4 6 4 1 1 4 5 3 7 6 4 11 12 3 6 5 4 5 5 8 6 6 5 2 3 2 4 5 2
25 26 26 29 28 26 25 26 26 28 27 24 23 24 28 26 17 4 4 5 10 5 1 4 4 3 3 6 4 4 6 3 3 5 5 4 4 7 6 3 4 3 1 3 4 5 4
24 25 27 28 28 27 26 27 27 28 28 25 25 30 30 23 4 3 2 9 12 3 3 7 5 9 4 1 13 7 1 2 4 7 5 3 3 5 5 3 4 3 5 4 2 3 4
24 26 27 28 27 28 27 28 28 30 27 27 30 29 25 6 1 3 3 15 3 1 3 4 6 10 7 4 3 6 2 3 4 6 6 2 1 2 4 4 5 6 4 6 4 3 2
24 25 28 29 27 28 29 29 30 31 31 30 29 22 15 5 3 12 11 2 2 1 3 4 8 9 12 4 5 4 4 4 4 5 3 2 2 2 4 7 4 5 5 3 4 2 6
24 27 28 28 28 28 30 31 32 34 37 27 13 16 17 13 10 14 7 4 3 3 2 9 10 12 6 8 7 7 5 4 2 4 4 4 0 4 2 5 6 3 5 4 5 2 4
22 26 29 28 28 28 30 32 34 36 31 16 19 18 21 17 12 2 2 3 4 4 2 9 13 6 4 5 6 4 1 5 2 2 5 4 1 2 3 3 6 3 3 3 2 1 3
21 25 27 27 28 29 31 32 34 35 27 11 10 5 13 9 6 2 2 6 2 4 13 5 5 0 4 4 4 3 5 3 3 6 2 5 4 2 2 4 1 4 6 3 2 1 4
21 24 26 26 28 29 30 31 33 34 26 7 3 3 5 8 4 3 3 5 4 9 4 2 4 4 7 5 4 4 9 2 6 4 3 2 4 4 4 4 6 3 3 2 3 4 3
19 22 25 25 27 28 30 32 33 34 24 9 3 3 5 10 3 2 2 3 6 5 6 2 5 7 6 4 4 3 8 4 8 5 5 1 4 3 7 3 5 4 5 6 4 4 2
18 20 23 26 27 28 30 32 35 34 19 4 2 2 4 4 3 2 2 4 6 2 3 2 3 3 5 5 5 3 5 4 10 6 8 3 2 2 2 2 2 4 5 4 2 1 6
16 18 21 25 27 28 29 31 35 36 19 2 2 3 4 2 1 3 5 5 4 6 8 5 5 12 4 3 3 4 3 5 4 5 8 6 3 5 5 4 3 3 4 8 9 3 4
14 16 19 22 25 27 29 29 32 34 16 3 3 2 2 3 3 1 2 5 5 6 5 4 4 6 3 3 6 5 3 3 5 3 3 4 3 3 5 7 5 5 8 8 12 18 8
13 14 16 19 22 24 26 28 32 35 15 7 2 3 3 3 3 3 1 4 5 4 5 4 5 2 3 4 2 5 6 3 4 1 3 1 1 2 4 5 7 6 10 11 14 15 18
10 14 14 16 18 21 23 26 27 29 24 7 6 3 2 5 4 2 2 0 4 2 4 4 1 4 7 3 4 3 4 6 6 7 3 5 4 1 4 3 5 5 8 11 5 6 8
7 13 12 14 15 17 19 21 23 24 24 7 5 4 2 4 2 2 1 1 3 3 2 3 4 3 1 1 3 5 6 6 6 3 4 4 4 1 4 4 1 5 2 6 8 7 10
6 11 10 13 14 14 15 17 18 20 19 16 7 4 2 3 4 5 6 1 3 4 3 2 3 1 1 2 3 2 1 1 4 4 6 5 4 2 2 2 6 3 3 4 5 8 5
7 9 11 11 12 13 14 14 15 15 17 18 4 10 1 2 4 3 3 3 3 2 3 1 1 2 3 2 2 3 4 5 3 2 4 4 3 3 2 2 3 3 1 3 4 4 5
8 9 12 9 11 11 12 13 13 13 14 15 2 12 2 3 4 2 4 2 0 3 2 1 2 1 3 2 2 3 3 3 5 6 4 3 3 4 4 3 6 7 3 4 2 5 4
9 10 13 9 10 11 9 10 11 10 10 11 7 6 5 3 8 4 3 3 3 2 4 3 3 2 2 2 3 2 2 2 1 3 5 6 6 4 3 4 7 4 3 3 4 4 4
11 11 12 12 11 10 11 10 10 9 8 7 2 9 10 4 5 9 20 27 13 3 2 3 2 3 4 3 1 1 1 1 2 3 1 3 5 4 7 5 5 3 4 4 2 4 4
Wind_Direction
345 340 336 341 338 337 332 330 330 329 328 323 315 308 306 307 305 304 302 299 298 295 297 293 297 193 167 214 247 246 168 176 182 185 177 174 158 171 174 180 238 223 259 237 245 263 246
345 340 346 339 333 333 332 333 332 333 328 324 319 317 314 301 303 303 301 300 295 290 288 290 293 182 154 216 255 238 193 180 189 180 183 166 182 206 200 186 164 208 219 249 271 242 240
341 343 341 337 330 332 332 332 331 329 326 323 324 322 313 309 308 306 305 300 294 284 287 284 285 183 183 216 273 203 176 182 183 185 165 197 220 204 177 270 194 161 165 299 235 226 251
346 343 339 335 337 339 339 338 335 333 331 329 327 321 318 316 313 312 308 300 290 282 287 279 290 218 234 233 223 213 179 178 203 199 204 199 217 160 163 238 79 131 73 246 257 261 238
342 342 340 334 340 339 339 337 335 335 334 333 331 326 325 321 317 313 307 299 291 280 279 277 299 186 227 202 209 216 198 181 166 198 192 125 129 149 117 133 49 9 178 219 303 213 223
343 339 339 336 339 339 336 338 336 336 334 333 335 331 323 320 318 326 320 305 290 279 273 238 266 169 252 189 171 194 200 186 162 130 126 140 99 138 141 138 192 197 190 217 231 301 219
342 341 338 338 340 338 338 337 338 336 336 334 332 327 327 326 316 328 323 337 7 79 224 304 143 231 150 159 151 180 175 154 110 145 174 156 163 181 192 204 93 132 159 277 271 292 329
344 344 337 339 339 339 339 339 335 337 334 333 330 325 322 321 311 332 325 247 261 77 299 235 228 268 129 140 147 180 183 150 154 158 125 100 150 148 190 212 246 309 270 275 280 316 315
344 343 338 342 341 341 340 341 339 337 338 335 330 326 324 325 322 313 251 238 234 311 26 284 223 205 119 110 110 164 163 149 137 131 147 127 182 184 166 164 158 122 184 224 256 321 99
345 346 341 344 344 344 342 339 341 337 341 334 328 325 322 320 305 196 251 291 185 192 59 145 185 210 185 127 66 113 168 125 140 145 121 124 182 153 131 152 139 136 76 95 43 35 272
347 346 344 345 346 345 345 344 344 339 340 336 327 323 321 316 230 194 191 149 139 80 147 135 178 143 103 145 130 181 260 58 131 118 99 187 156 124 123 190 144 152 99 84 60 29 3
347 349 347 347 348 346 350 348 342 342 338 331 328 327 332 1 109 149 154 153 211 77 140 127 133 150 112 102 39 113 33 37 76 96 46 65 285 95 140 87 119 149 79 49 52 57 330
348 350 349 350 352 353 351 346 348 342 335 329 327 341 8 53 44 137 141 172 69 86 318 123 133 131 123 96 114 116 154 102 123 127 123 350 12 23 104 83 26 93 73 355 351 337 233
350 353 350 353 353 355 351 350 350 343 337 337 6 38 34 42 76 142 151 28 27 335 20 134 128 102 95 112 118 133 123 125 58 91 110 138 202 189 219 150 172 167 137 157 231 236 283
353 354 352 355 353 356 353 355 355 350 358 33 72 52 39 50 87 96 311 48 0 345 56 124 96 83 99 68 109 119 100 151 159 166 134 123 300 148 157 133 133 200 149 174 79 290 27
359 356 355 354 357 358 356 358 358 355 0 35 61 52 27 21 52 35 8 353 302 270 114 84 75 34 109 113 104 107 157 213 194 183 140 202 102 140 118 76 94 138 149 73 33 299 267
2 1 356 354 357 357 356 360 0 356 354 352 34 65 339 354 6 41 34 353 342 133 7 47 131 90 105 120 104 146 185 262 189 197 174 355 105 310 119 196 178 136 170 83 114 163 192
4 3 357 357 359 0 359 360 360 358 354 24 24 44 351 350 75 74 339 342 318 255 241 219 93 109 135 114 138 148 193 247 181 160 156 283 105 163 208 241 177 163 177 149 133 267 242
3 6 357 354 360 0 1 359 359 0 4 333 72 302 340 2 70 357 221 228 218 283 8 124 94 130 132 138 143 180 165 292 169 154 159 185 57 70 353 59 58 195 193 192 207 121 197
3 7 360 353 2 1 2 1 1 0 2 354 76 28 330 46 88 6 353 351 9 359 40 70 108 128 128 131 111 131 102 24 121 153 166 110 151 165 183 205 145 191 198 206 198 197 233
359 7 2 354 359 2 3 6 5 6 2 8 30 47 32 323 12 307 307 348 10 18 17 37 56 148 149 146 139 122 108 64 40 44 85 110 172 148 243 240 239 219 224 203 211 234 238
351 2 3 353 357 2 3 7 9 11 19 57 45 3 338 277 288 326 338 14 17 357 28 17 102 107 114 67 240 139 120 139 187 77 95 62 251 37 291 267 220 241 242 228 232 246 256
358 353 358 353 355 360 2 7 13 16 25 25 1 333 309 296 334 33 275 355 34 12 33 61 154 93 77 78 47 58 122 170 164 145 133 137 137 186 269 334 324 279 228 206 204 201 204
2 347 351 347 350 358 358 5 10 16 19 14 3 310 334 299 318 273 279 101 40 17 134 359 46 83 160 32 82 56 50 77 117 143 129 138 124 176 284 331 323 251 192 198 209 235 220
8 339 344 338 342 349 356 358 6 13 12 14 11 7 332 284 294 316 353 92 85 41 60 59 21 149 333 65 82 112 92 107 212 178 170 137 138 201 258 256 280 282 169 172 179 286 219
357 329 334 338 335 339 345 351 355 6 10 5 51 9 329 309 244 306 299 225 169 178 360 91 343 342 73 92 113 189 186 194 168 134 150 132 110 202 166 278 264 259 347 97 90 283 210
349 320 330 333 329 331 337 343 346 354 3 5 346 12 261 263 269 335 244 234 178 119 165 190 196 58 40 105 163 188 242 162 167 171 170 171 196 219 215 246 283 253 274 110 52 256 222
325 309 322 322 324 324 326 334 333 340 348 358 336 16 358 291 281 244 284 297 317 152 156 215 71 316 71 136 161 215 188 237 164 178 178 174 182 198 180 211 264 182 104 190 236 291 272
313 308 310 314 323 322 323 327 325 331 327 320 287 332 334 247 263 291 274 270 257 241 192 171 215 156 172 109 182 124 212 98 171 247 177 218 200 182 188 213 242 261 233 279 306 271 294